YMA7608 YPKA-YBRM

Flight info

Callsign YMA7608
Flight time 0h 54m
Altitude 31000
Route YPKA PD J151 SAFIR BUDLO YBRM
Aircraft B738/M-VGDW/C

Departure

Time 2026-04-18 08:17
Airport Karratha Airport (YPKA)

Arrival

Time 2026-04-18 09:12
Airport Broome International Airport (YBRM)
Time Latitude Longitude Altitude Speed Heading
2026-04-18 07:26 -20.71044 116.76970 41 ft 0 kts 302°
2026-04-18 08:11 -20.71039 116.76963 41 ft 3 kts 314°
2026-04-18 08:11 -20.71010 116.76988 40 ft 8 kts 91°
2026-04-18 08:12 -20.71039 116.77042 40 ft 8 kts 145°
2026-04-18 08:12 -20.71093 116.77055 41 ft 8 kts 172°
2026-04-18 08:12 -20.71148 116.77047 42 ft 7 kts 220°
2026-04-18 08:12 -20.71165 116.76994 43 ft 8 kts 261°
2026-04-18 08:13 -20.71174 116.76918 43 ft 12 kts 264°
2026-04-18 08:13 -20.71184 116.76820 43 ft 13 kts 264°
2026-04-18 08:13 -20.71194 116.76726 43 ft 12 kts 263°
2026-04-18 08:13 -20.71202 116.76640 43 ft 11 kts 264°
2026-04-18 08:14 -20.71211 116.76562 43 ft 10 kts 262°
2026-04-18 08:14 -20.71232 116.76495 43 ft 9 kts 236°
2026-04-18 08:14 -20.71287 116.76469 42 ft 8 kts 176°
2026-04-18 08:14 -20.71342 116.76476 43 ft 6 kts 172°
2026-04-18 08:15 -20.71382 116.76484 44 ft 4 kts 163°
2026-04-18 08:15 -20.71397 116.76505 44 ft 3 kts 98°
2026-04-18 08:15 -20.71396 116.76526 44 ft 0 kts 83°
2026-04-18 08:16 -20.71396 116.76533 44 ft 9 kts 83°
2026-04-18 08:17 -20.71349 116.76961 43 ft 107 kts 83°
2026-04-18 08:17 -20.71243 116.78066 88 ft 185 kts 87°
2026-04-18 08:17 -20.71240 116.79352 1138 ft 160 kts 81°
2026-04-18 08:17 -20.71042 116.80617 1641 ft 193 kts 77°
2026-04-18 08:18 -20.70779 116.82154 2230 ft 229 kts 78°
2026-04-18 08:18 -20.70465 116.83933 2849 ft 265 kts 78°
2026-04-18 08:18 -20.70116 116.85877 3526 ft 267 kts 78°
2026-04-18 08:18 -20.69769 116.87807 4208 ft 265 kts 79°
2026-04-18 08:19 -20.69422 116.89734 4880 ft 268 kts 79°
2026-04-18 08:19 -20.69065 116.91702 5551 ft 271 kts 79°
2026-04-18 08:19 -20.68700 116.93681 6213 ft 274 kts 79°
2026-04-18 08:19 -20.68331 116.95670 6898 ft 277 kts 79°
2026-04-18 08:20 -20.67978 116.97692 7587 ft 280 kts 80°
2026-04-18 08:20 -20.67622 116.99744 8296 ft 281 kts 80°
2026-04-18 08:20 -20.67266 117.01786 8985 ft 284 kts 80°
2026-04-18 08:20 -20.66903 117.03864 9663 ft 287 kts 80°
2026-04-18 08:21 -20.66545 117.05954 10347 ft 298 kts 80°
2026-04-18 08:21 -20.66147 117.08201 11040 ft 322 kts 79°
2026-04-18 08:21 -20.65706 117.10649 11698 ft 345 kts 79°
2026-04-18 08:21 -20.65250 117.13210 12347 ft 365 kts 79°
2026-04-18 08:22 -20.64770 117.15932 13001 ft 382 kts 79°
2026-04-18 08:22 -20.64279 117.18725 13651 ft 387 kts 79°
2026-04-18 08:22 -20.63782 117.21553 14282 ft 390 kts 79°
2026-04-18 08:22 -20.63281 117.24405 14885 ft 395 kts 79°
2026-04-18 08:23 -20.62751 117.27287 15473 ft 400 kts 78°
2026-04-18 08:23 -20.62194 117.30231 16037 ft 406 kts 78°
2026-04-18 08:23 -20.61636 117.33185 16617 ft 411 kts 78°
2026-04-18 08:23 -20.61070 117.36185 17199 ft 416 kts 78°
2026-04-18 08:24 -20.60505 117.39191 17745 ft 420 kts 78°
2026-04-18 08:24 -20.59971 117.42271 18283 ft 425 kts 79°
2026-04-18 08:24 -20.59435 117.45388 18845 ft 430 kts 79°
2026-04-18 08:24 -20.58892 117.48531 19377 ft 433 kts 78°
2026-04-18 08:25 -20.58300 117.51704 19915 ft 437 kts 78°
2026-04-18 08:25 -20.57703 117.54892 20437 ft 441 kts 78°
2026-04-18 08:25 -20.57114 117.58073 20943 ft 445 kts 78°
2026-04-18 08:25 -20.56512 117.61340 21451 ft 449 kts 78°
2026-04-18 08:26 -20.55915 117.64602 21964 ft 453 kts 78°
2026-04-18 08:26 -20.55312 117.67906 22446 ft 457 kts 78°
2026-04-18 08:26 -20.54707 117.71251 22945 ft 461 kts 78°
2026-04-18 08:26 -20.54099 117.74618 23438 ft 464 kts 78°
2026-04-18 08:27 -20.53495 117.78016 23937 ft 470 kts 78°
2026-04-18 08:27 -20.52883 117.81433 24408 ft 473 kts 78°
2026-04-18 08:27 -20.52260 117.84905 24881 ft 475 kts 78°
2026-04-18 08:27 -20.51650 117.88325 25344 ft 479 kts 78°
2026-04-18 08:28 -20.50975 117.91854 25823 ft 481 kts 77°
2026-04-18 08:28 -20.50301 117.95342 26290 ft 484 kts 77°
2026-04-18 08:28 -20.49632 117.98830 26737 ft 488 kts 77°
2026-04-18 08:28 -20.48955 118.02399 27185 ft 493 kts 77°
2026-04-18 08:29 -20.48278 118.05978 27635 ft 495 kts 77°
2026-04-18 08:29 -20.47595 118.09587 28088 ft 498 kts 77°
2026-04-18 08:29 -20.46917 118.13203 28538 ft 502 kts 77°
2026-04-18 08:29 -20.46232 118.16861 28964 ft 505 kts 77°
2026-04-18 08:30 -20.45547 118.20541 29387 ft 509 kts 78°
2026-04-18 08:30 -20.44905 118.24268 29816 ft 511 kts 77°
2026-04-18 08:30 -20.44223 118.27953 30243 ft 513 kts 77°
2026-04-18 08:30 -20.43530 118.31702 30675 ft 516 kts 77°
2026-04-18 08:31 -20.42836 118.35471 30883 ft 523 kts 77°
2026-04-18 08:31 -20.41444 118.43066 30880 ft 515 kts 77°
2026-04-18 08:32 -20.40099 118.50465 30888 ft 509 kts 77°
2026-04-18 08:32 -20.38641 118.57877 30884 ft 513 kts 77°
2026-04-18 08:33 -20.36760 118.65157 30842 ft 504 kts 57°
2026-04-18 08:33 -20.33235 118.71580 30890 ft 504 kts 57°
2026-04-18 08:34 -20.29816 118.78052 30884 ft 504 kts 58°
2026-04-18 08:34 -20.26433 118.84595 30886 ft 503 kts 58°
2026-04-18 08:35 -20.23070 118.91108 30882 ft 503 kts 58°
2026-04-18 08:35 -20.19697 118.97638 30881 ft 503 kts 58°
2026-04-18 08:36 -20.16341 119.04143 30883 ft 503 kts 58°
2026-04-18 08:36 -20.12964 119.10675 30882 ft 503 kts 58°
2026-04-18 08:37 -20.09593 119.17209 30881 ft 503 kts 58°
2026-04-18 08:37 -20.06242 119.23701 30892 ft 502 kts 58°
2026-04-18 08:38 -20.02860 119.30265 30888 ft 503 kts 58°
2026-04-18 08:38 -19.99510 119.36768 30890 ft 502 kts 58°
2026-04-18 08:39 -19.96135 119.43302 30887 ft 501 kts 58°
2026-04-18 08:39 -19.93071 119.49223 30880 ft 500 kts 58°
2026-04-18 08:40 -19.89769 119.55735 30887 ft 499 kts 58°
2026-04-18 08:40 -19.86430 119.62188 30891 ft 500 kts 58°
2026-04-18 08:41 -19.83097 119.68637 30880 ft 499 kts 58°
2026-04-18 08:41 -19.79742 119.75114 30883 ft 499 kts 58°
2026-04-18 08:42 -19.76388 119.81576 30885 ft 501 kts 58°
2026-04-18 08:42 -19.73054 119.87986 30888 ft 498 kts 58°
2026-04-18 08:43 -19.69715 119.94434 30886 ft 498 kts 58°
2026-04-18 08:43 -19.66366 120.00870 30892 ft 496 kts 58°
2026-04-18 08:44 -19.63033 120.07262 30888 ft 497 kts 58°
2026-04-18 08:44 -19.59700 120.13648 30883 ft 492 kts 58°
2026-04-18 08:45 -19.56390 120.19971 30892 ft 490 kts 58°
2026-04-18 08:45 -19.53101 120.26276 30890 ft 490 kts 58°
2026-04-18 08:46 -19.49811 120.32588 30892 ft 490 kts 57°
2026-04-18 08:46 -19.46444 120.38870 30892 ft 490 kts 58°
2026-04-18 08:47 -19.43160 120.45173 30891 ft 491 kts 58°
2026-04-18 08:47 -19.39866 120.51479 30890 ft 490 kts 58°
2026-04-18 08:48 -19.36513 120.57765 30895 ft 489 kts 58°
2026-04-18 08:48 -19.33158 120.64029 30893 ft 489 kts 57°
2026-04-18 08:49 -19.29791 120.70232 30884 ft 488 kts 58°
2026-04-18 08:49 -19.26510 120.76498 30883 ft 488 kts 58°
2026-04-18 08:50 -19.23156 120.82739 30879 ft 487 kts 57°
2026-04-18 08:50 -19.19811 120.88966 30871 ft 487 kts 58°
2026-04-18 08:51 -19.16495 120.95235 30866 ft 488 kts 58°
2026-04-18 08:51 -19.13121 121.01472 30866 ft 487 kts 57°
2026-04-18 08:52 -19.09764 121.07636 30857 ft 486 kts 58°
2026-04-18 08:52 -19.06484 121.13864 30865 ft 486 kts 58°
2026-04-18 08:53 -19.03114 121.20078 30862 ft 487 kts 57°
2026-04-18 08:53 -18.99766 121.26263 30863 ft 486 kts 58°
2026-04-18 08:53 -18.98141 121.29366 30526 ft 492 kts 58°
2026-04-18 08:54 -18.96417 121.32612 29630 ft 504 kts 58°
2026-04-18 08:54 -18.94729 121.35756 29078 ft 492 kts 57°
2026-04-18 08:54 -18.93011 121.38874 28501 ft 482 kts 57°
2026-04-18 08:54 -18.91347 121.41891 27960 ft 478 kts 57°
2026-04-18 08:55 -18.89702 121.44936 27395 ft 475 kts 58°
2026-04-18 08:55 -18.88073 121.47961 26380 ft 475 kts 58°
2026-04-18 08:55 -18.86461 121.50935 25660 ft 463 kts 58°
2026-04-18 08:55 -18.84874 121.53850 25107 ft 456 kts 59°
2026-04-18 08:56 -18.83291 121.56735 24447 ft 459 kts 58°
2026-04-18 08:56 -18.81728 121.59640 23613 ft 454 kts 59°
2026-04-18 08:56 -18.80183 121.62511 23052 ft 448 kts 59°
2026-04-18 08:56 -18.78517 121.65282 22410 ft 446 kts 47°
2026-04-18 08:57 -18.73314 121.68434 20905 ft 428 kts 18°
2026-04-18 08:57 -18.70557 121.69501 20349 ft 419 kts 19°
2026-04-18 08:57 -18.67815 121.70614 19566 ft 422 kts 19°
2026-04-18 08:58 -18.65104 121.71733 18960 ft 414 kts 20°
2026-04-18 08:58 -18.62438 121.72852 18458 ft 412 kts 20°
2026-04-18 08:58 -18.59776 121.73987 17545 ft 414 kts 21°
2026-04-18 08:58 -18.57138 121.75131 16953 ft 402 kts 21°
2026-04-18 08:59 -18.54585 121.76237 16233 ft 400 kts 21°
2026-04-18 08:59 -18.52029 121.77335 15663 ft 389 kts 21°
2026-04-18 08:59 -18.49521 121.78427 14860 ft 390 kts 22°
2026-04-18 08:59 -18.47072 121.79519 14329 ft 378 kts 22°
2026-04-18 09:00 -18.44652 121.80595 13682 ft 375 kts 22°
2026-04-18 09:00 -18.42267 121.81651 13205 ft 367 kts 22°
2026-04-18 09:00 -18.39931 121.82677 12488 ft 364 kts 22°
2026-04-18 09:00 -18.37602 121.83693 12024 ft 359 kts 22°
2026-04-18 09:01 -18.35293 121.84694 11467 ft 355 kts 22°
2026-04-18 09:01 -18.33006 121.85680 10886 ft 352 kts 22°
2026-04-18 09:01 -18.30821 121.86613 10620 ft 318 kts 22°
2026-04-18 09:01 -18.28870 121.87471 10253 ft 294 kts 23°
2026-04-18 09:02 -18.27000 121.88305 10088 ft 288 kts 23°
2026-04-18 09:02 -18.25163 121.89123 9856 ft 290 kts 23°
2026-04-18 09:02 -18.23298 121.89947 9516 ft 287 kts 23°
2026-04-18 09:02 -18.21448 121.90756 9265 ft 285 kts 23°
2026-04-18 09:03 -18.19618 121.91548 8915 ft 286 kts 23°
2026-04-18 09:03 -18.19094 121.91774 8835 ft 284 kts 24°
2026-04-18 09:03 -18.17964 121.92258 8650 ft 281 kts 24°
2026-04-18 09:03 -18.17269 121.92553 8502 ft 279 kts 23°
2026-04-18 09:04 -18.15834 121.93181 8281 ft 275 kts 24°
2026-04-18 09:04 -18.14087 121.93947 7950 ft 268 kts 24°
2026-04-18 09:04 -18.12366 121.94696 7654 ft 265 kts 24°
2026-04-18 09:04 -18.10691 121.95419 7343 ft 260 kts 24°
2026-04-18 09:05 -18.09006 121.96159 7028 ft 258 kts 25°
2026-04-18 09:05 -18.07766 121.96712 6806 ft 253 kts 25°
2026-04-18 09:05 -18.07283 121.96928 6707 ft 252 kts 25°
2026-04-18 09:05 -18.05676 121.97636 6424 ft 249 kts 25°
2026-04-18 09:06 -18.04076 121.98319 6174 ft 245 kts 26°
2026-04-18 09:06 -18.02503 121.99014 5909 ft 240 kts 26°
2026-04-18 09:06 -18.00963 121.99700 5653 ft 241 kts 26°
2026-04-18 09:06 -17.99437 122.00380 5378 ft 235 kts 26°
2026-04-18 09:07 -17.97934 122.01046 5125 ft 233 kts 26°
2026-04-18 09:07 -17.96442 122.01704 4823 ft 227 kts 26°
2026-04-18 09:07 -17.94997 122.02340 4601 ft 224 kts 26°
2026-04-18 09:07 -17.93563 122.02966 4298 ft 220 kts 25°
2026-04-18 09:08 -17.92178 122.03581 3945 ft 210 kts 35°
2026-04-18 09:08 -17.91390 122.04763 3502 ft 201 kts 81°
2026-04-18 09:08 -17.91467 122.06200 3248 ft 197 kts 96°
2026-04-18 09:08 -17.91637 122.07613 2966 ft 191 kts 96°
2026-04-18 09:09 -17.91803 122.08971 2718 ft 186 kts 96°
2026-04-18 09:09 -17.91964 122.10289 2479 ft 181 kts 96°
2026-04-18 09:09 -17.92176 122.11578 2224 ft 175 kts 100°
2026-04-18 09:09 -17.92430 122.12807 1994 ft 170 kts 101°
2026-04-18 09:10 -17.92685 122.13984 1807 ft 162 kts 103°
2026-04-18 09:10 -17.92952 122.15133 1520 ft 161 kts 102°
2026-04-18 09:10 -17.93221 122.16261 1279 ft 159 kts 103°
2026-04-18 09:10 -17.93488 122.17368 1035 ft 156 kts 103°
2026-04-18 09:11 -17.93760 122.18456 789 ft 152 kts 104°
2026-04-18 09:11 -17.94028 122.19526 562 ft 153 kts 105°
2026-04-18 09:11 -17.94313 122.20617 314 ft 155 kts 105°
2026-04-18 09:11 -17.94607 122.21712 82 ft 156 kts 104°
2026-04-18 09:12 -17.94846 122.22625 67 ft 65 kts 105°
2026-04-18 09:12 -17.94941 122.22969 58 ft 46 kts 104°
2026-04-18 09:12 -17.95009 122.23235 50 ft 33 kts 104°
2026-04-18 09:12 -17.95038 122.23348 48 ft 13 kts 106°
2026-04-18 09:13 -17.95064 122.23445 45 ft 14 kts 106°
2026-04-18 09:13 -17.95143 122.23464 46 ft 12 kts 191°
2026-04-18 09:13 -17.95206 122.23471 46 ft 0 kts 191°
2026-04-18 09:13 -17.95209 122.23468 46 ft 0 kts 225°
2026-04-18 09:14 -17.95214 122.23455 46 ft 1 kts 250°